Time,TemperatureF,DewpointF,PressureIn,WindDirection,WindDirectionDegrees,WindSpeedMPH,WindSpeedGustMPH,Humidity,HourlyPrecipIn,Conditions,Clouds,dailyrainin,SoftwareType,DateUTC
2013-06-09 00:02:00,65.0,57.0,29.97,SSE,157,3.0,6.0,75,-99.99,,,-99.99,,2013-06-09 05:02:00,
2013-06-09 00:12:00,65.0,57.0,29.97,SE,135,5.0,8.0,75,-99.99,,,-99.99,,2013-06-09 05:12:00,
2013-06-09 00:22:00,65.0,57.0,29.97,SE,135,6.0,8.0,74,-99.99,,,-99.99,,2013-06-09 05:22:00,
2013-06-09 00:32:00,65.0,57.0,29.97,SSE,157,5.0,8.0,75,-99.99,,,-99.99,,2013-06-09 05:32:00,
2013-06-09 00:42:00,65.0,57.0,29.97,SSE,157,5.0,7.0,77,-99.99,,,-99.99,,2013-06-09 05:42:00,
2013-06-09 00:52:00,64.0,57.0,29.97,SSE,157,5.0,8.0,78,-99.99,,,-99.99,,2013-06-09 05:52:00,
2013-06-09 01:02:00,64.0,57.0,29.97,SSE,157,4.0,6.0,78,-99.99,,,-99.99,,2013-06-09 06:02:00,
2013-06-09 01:12:00,64.0,58.0,29.97,SE,135,5.0,7.0,80,-99.99,,,-99.99,,2013-06-09 06:12:00,
2013-06-09 01:22:00,64.0,58.0,29.97,SE,135,4.0,6.0,81,-99.99,,,-99.99,,2013-06-09 06:22:00,
2013-06-09 01:32:00,63.0,58.0,29.97,SE,135,4.0,6.0,83,-99.99,,,-99.99,,2013-06-09 06:32:00,
2013-06-09 01:42:00,63.0,58.0,29.96,SE,135,4.0,6.0,83,-99.99,,,-99.99,,2013-06-09 06:42:00,
2013-06-09 01:52:00,63.0,58.0,29.96,SE,135,4.0,6.0,84,-99.99,,,-99.99,,2013-06-09 06:52:00,
2013-06-09 02:02:00,63.0,58.0,29.96,SE,135,4.0,6.0,84,-99.99,,,-99.99,,2013-06-09 07:02:00,
2013-06-09 02:12:00,63.0,58.0,29.97,SE,135,5.0,8.0,84,-99.99,,,-99.99,,2013-06-09 07:12:00,
2013-06-09 02:22:00,63.0,58.0,29.96,SE,135,5.0,8.0,84,-99.99,,,-99.99,,2013-06-09 07:22:00,
2013-06-09 02:32:00,63.0,58.0,29.96,SE,135,5.0,8.0,85,-99.99,,,-99.99,,2013-06-09 07:32:00,
2013-06-09 02:42:00,63.0,58.0,29.95,SE,135,5.0,9.0,85,-99.99,,,-99.99,,2013-06-09 07:42:00,
2013-06-09 02:52:00,63.0,58.0,29.95,SE,135,5.0,8.0,84,-99.99,,,-99.99,,2013-06-09 07:52:00,
2013-06-09 03:02:00,63.0,59.0,29.95,SE,135,7.0,11.0,84,-99.99,,,-99.99,,2013-06-09 08:02:00,
2013-06-09 03:12:00,64.0,59.0,29.95,SE,135,7.0,11.0,84,-99.99,,,-99.99,,2013-06-09 08:12:00,
2013-06-09 03:22:00,64.0,59.0,29.94,SSE,157,7.0,11.0,84,-99.99,,,-99.99,,2013-06-09 08:22:00,
2013-06-09 03:32:00,63.0,59.0,29.94,SSE,157,7.0,11.0,84,-99.99,,,-99.99,,2013-06-09 08:32:00,
2013-06-09 03:42:00,64.0,59.0,29.94,SSE,157,7.0,10.0,84,-99.99,,,-99.99,,2013-06-09 08:42:00,
2013-06-09 03:53:00,64.0,59.0,29.94,SSE,157,7.0,11.0,84,-99.99,,,-99.99,,2013-06-09 08:53:00,
2013-06-09 04:02:00,64.0,59.0,29.94,SSE,157,6.0,9.0,84,-99.99,,,-99.99,,2013-06-09 09:02:00,
2013-06-09 04:12:00,64.0,59.0,29.94,SSE,157,7.0,12.0,84,-99.99,,,-99.99,,2013-06-09 09:12:00,
2013-06-09 04:22:00,64.0,59.0,29.94,SSE,157,6.0,11.0,84,-99.99,,,-99.99,,2013-06-09 09:22:00,
2013-06-09 04:33:00,64.0,59.0,29.94,SSE,157,6.0,8.0,85,-99.99,,,-99.99,,2013-06-09 09:33:00,
2013-06-09 04:43:00,64.0,59.0,29.94,SSE,157,5.0,8.0,85,-99.99,,,-99.99,,2013-06-09 09:43:00,
2013-06-09 04:52:00,64.0,59.0,29.94,SSE,157,5.0,7.0,85,-99.99,,,-99.99,,2013-06-09 09:52:00,
2013-06-09 05:03:00,64.0,59.0,29.93,SSE,157,6.0,8.0,84,-99.99,,,-99.99,,2013-06-09 10:03:00,
2013-06-09 05:12:00,64.0,59.0,29.93,SSE,157,6.0,10.0,83,-99.99,,,-99.99,,2013-06-09 10:12:00,
2013-06-09 05:23:00,64.0,59.0,29.93,SSE,157,4.0,8.0,84,-99.99,,,-99.99,,2013-06-09 10:23:00,
2013-06-09 05:32:00,64.0,59.0,29.92,SSE,157,5.0,9.0,84,-99.99,,,-99.99,,2013-06-09 10:32:00,
2013-06-09 05:43:00,65.0,59.0,29.92,SSE,157,6.0,9.0,81,-99.99,,,-99.99,,2013-06-09 10:43:00,
2013-06-09 05:52:00,66.0,59.0,29.92,South,180,6.0,12.0,79,-99.99,,,-99.99,,2013-06-09 10:52:00,
2013-06-09 06:02:00,66.0,59.0,29.92,South,180,6.0,9.0,78,-99.99,,,-99.99,,2013-06-09 11:02:00,
2013-06-09 06:12:00,66.0,59.0,29.92,SSE,157,5.0,8.0,80,-99.99,,,-99.99,,2013-06-09 11:12:00,
2013-06-09 06:22:00,65.0,59.0,29.93,South,180,6.0,9.0,80,-99.99,,,-99.99,,2013-06-09 11:22:00,
2013-06-09 06:32:00,65.0,59.0,29.93,SSE,157,5.0,7.0,80,-99.99,,,-99.99,,2013-06-09 11:32:00,
2013-06-09 06:42:00,66.0,59.0,29.93,South,180,5.0,8.0,79,-99.99,,,-99.99,,2013-06-09 11:42:00,
2013-06-09 06:52:00,66.0,59.0,29.93,South,180,6.0,11.0,78,-99.99,,,-99.99,,2013-06-09 11:52:00,
2013-06-09 07:02:00,66.0,59.0,29.93,South,180,6.0,9.0,78,-99.99,,,-99.99,,2013-06-09 12:02:00,
2013-06-09 07:12:00,66.0,59.0,29.93,SSE,157,5.0,8.0,80,-99.99,,,-99.99,,2013-06-09 12:12:00,
2013-06-09 07:22:00,66.0,59.0,29.94,South,180,6.0,10.0,79,-99.99,,,-99.99,,2013-06-09 12:22:00,
2013-06-09 07:32:00,66.0,59.0,29.94,South,180,6.0,8.0,78,-99.99,,,-99.99,,2013-06-09 12:32:00,
2013-06-09 07:42:00,66.0,59.0,29.94,South,180,6.0,10.0,77,-99.99,,,-99.99,,2013-06-09 12:42:00,
2013-06-09 07:52:00,67.0,59.0,29.94,SSW,202,5.0,8.0,78,-99.99,,,-99.99,,2013-06-09 12:52:00,
2013-06-09 08:02:00,67.0,59.0,29.94,South,180,6.0,11.0,77,-99.99,,,-99.99,,2013-06-09 13:02:00,
2013-06-09 08:12:00,67.0,60.0,29.94,South,180,6.0,9.0,77,-99.99,,,-99.99,,2013-06-09 13:12:00,
2013-06-09 08:22:00,67.0,60.0,29.94,South,180,5.0,8.0,78,-99.99,,,-99.99,,2013-06-09 13:22:00,
2013-06-09 08:32:00,67.0,60.0,29.94,South,180,5.0,9.0,77,-99.99,,,-99.99,,2013-06-09 13:32:00,
2013-06-09 08:42:00,67.0,60.0,29.94,SSW,202,6.0,9.0,77,-99.99,,,-99.99,,2013-06-09 13:42:00,
2013-06-09 08:52:00,68.0,60.0,29.94,SSW,202,5.0,7.0,77,-99.99,,,-99.99,,2013-06-09 13:52:00,
2013-06-09 09:02:00,68.0,61.0,29.94,South,180,6.0,8.0,77,-99.99,,,-99.99,,2013-06-09 14:02:00,
2013-06-09 09:12:00,68.0,61.0,29.94,South,180,6.0,9.0,77,-99.99,,,-99.99,,2013-06-09 14:12:00,
2013-06-09 09:22:00,69.0,61.0,29.93,South,180,5.0,7.0,77,-99.99,,,-99.99,,2013-06-09 14:22:00,
2013-06-09 09:32:00,69.0,61.0,29.93,SSW,202,5.0,8.0,76,-99.99,,,-99.99,,2013-06-09 14:32:00,
2013-06-09 09:42:00,70.0,62.0,29.94,SSW,202,7.0,9.0,75,-99.99,,,-99.99,,2013-06-09 14:42:00,
2013-06-09 09:52:00,69.0,61.0,29.94,SSW,202,7.0,11.0,76,-99.99,,,-99.99,,2013-06-09 14:52:00,
2013-06-09 10:02:00,70.0,62.0,29.93,SW,225,7.0,10.0,77,-99.99,,,-99.99,,2013-06-09 15:02:00,
2013-06-09 10:12:00,69.0,62.0,29.93,SW,225,6.0,11.0,77,-99.99,,,-99.99,,2013-06-09 15:12:00,
2013-06-09 10:22:00,69.0,62.0,29.93,SW,225,7.0,12.0,78,-99.99,,,-99.99,,2013-06-09 15:22:00,
2013-06-09 10:33:00,69.0,62.0,29.93,SW,225,6.0,11.0,79,-99.99,,,-99.99,,2013-06-09 15:33:00,
2013-06-09 10:43:00,69.0,62.0,29.93,SW,225,9.0,13.0,78,-99.99,,,-99.99,,2013-06-09 15:43:00,
2013-06-09 10:53:00,68.0,62.0,29.94,SW,225,8.0,12.0,80,-99.99,,,-99.99,,2013-06-09 15:53:00,
2013-06-09 11:03:00,67.0,62.0,29.94,SW,225,8.0,11.0,83,-99.99,,,-99.99,,2013-06-09 16:03:00,
2013-06-09 11:13:00,67.0,62.0,29.94,SW,225,7.0,10.0,87,-99.99,,,-99.99,,2013-06-09 16:13:00,
2013-06-09 11:23:00,66.0,63.0,29.95,SW,225,6.0,9.0,90,-99.99,,,-99.99,,2013-06-09 16:23:00,
2013-06-09 11:33:00,66.0,63.0,29.94,SSW,202,5.0,8.0,91,-99.99,,,-99.99,,2013-06-09 16:33:00,
2013-06-09 11:42:00,66.0,63.0,29.94,South,180,4.0,6.0,92,-99.99,,,-99.99,,2013-06-09 16:42:00,
2013-06-09 11:53:00,65.0,63.0,29.94,South,180,5.0,8.0,94,-99.99,,,-99.99,,2013-06-09 16:53:00,
2013-06-09 12:02:00,65.0,64.0,29.94,South,180,5.0,8.0,94,-99.99,,,-99.99,,2013-06-09 17:02:00,
2013-06-09 12:12:00,65.0,64.0,29.94,South,180,6.0,10.0,95,-99.99,,,-99.99,,2013-06-09 17:12:00,
2013-06-09 12:22:00,65.0,64.0,29.94,South,180,4.0,7.0,96,-99.99,,,-99.99,,2013-06-09 17:22:00,
2013-06-09 12:32:00,65.0,64.0,29.93,SSE,157,4.0,7.0,96,-99.99,,,-99.99,,2013-06-09 17:32:00,
2013-06-09 12:42:00,64.0,63.0,29.94,South,180,6.0,8.0,96,-99.99,,,-99.99,,2013-06-09 17:42:00,
2013-06-09 12:52:00,64.0,63.0,29.94,South,180,5.0,9.0,97,-99.99,,,-99.99,,2013-06-09 17:52:00,
2013-06-09 13:02:00,64.0,63.0,29.91,SE,135,6.0,11.0,96,-99.99,,,-99.99,,2013-06-09 18:02:00,
2013-06-09 13:12:00,64.0,63.0,29.91,SE,135,5.0,9.0,97,-99.99,,,-99.99,,2013-06-09 18:12:00,
2013-06-09 13:21:00,65.0,64.0,29.91,SSE,157,5.0,9.0,96,-99.99,,,-99.99,,2013-06-09 18:21:00,
2013-06-09 13:32:00,66.0,64.0,29.92,South,180,7.0,11.0,93,-99.99,,,-99.99,,2013-06-09 18:32:00,
2013-06-09 13:42:00,67.0,63.0,29.91,SSE,157,8.0,13.0,90,-99.99,,,-99.99,,2013-06-09 18:42:00,
2013-06-09 13:52:00,68.0,64.0,29.91,SSW,202,7.0,11.0,88,-99.99,,,-99.99,,2013-06-09 18:52:00,
2013-06-09 14:02:00,68.0,63.0,29.91,SSW,202,9.0,14.0,85,-99.99,,,-99.99,,2013-06-09 19:02:00,
2013-06-09 14:12:00,69.0,64.0,29.90,South,180,9.0,13.0,84,-99.99,,,-99.99,,2013-06-09 19:12:00,
2013-06-09 14:22:00,70.0,65.0,29.90,SSW,202,8.0,13.0,83,-99.99,,,-99.99,,2013-06-09 19:22:00,
2013-06-09 14:32:00,69.0,63.0,29.89,SSW,202,9.0,13.0,81,-99.99,,,-99.99,,2013-06-09 19:32:00,
2013-06-09 14:42:00,71.0,64.0,29.88,SSW,202,7.0,11.0,78,-99.99,,,-99.99,,2013-06-09 19:42:00,
2013-06-09 14:52:00,70.0,63.0,29.88,SSW,202,7.0,9.0,78,-99.99,,,-99.99,,2013-06-09 19:52:00,
2013-06-09 15:02:00,71.0,64.0,29.88,SSW,202,7.0,11.0,79,-99.99,,,-99.99,,2013-06-09 20:02:00,
2013-06-09 15:12:00,70.0,63.0,29.87,SSW,202,8.0,11.0,78,-99.99,,,-99.99,,2013-06-09 20:12:00,
2013-06-09 15:22:00,71.0,64.0,29.88,SSW,202,8.0,12.0,78,-99.99,,,-99.99,,2013-06-09 20:22:00,
2013-06-09 15:32:00,73.0,64.0,29.88,SSW,202,9.0,16.0,74,-99.99,,,-99.99,,2013-06-09 20:32:00,
2013-06-09 15:42:00,72.0,63.0,29.88,SSW,202,8.0,14.0,73,-99.99,,,-99.99,,2013-06-09 20:42:00,
2013-06-09 15:52:00,72.0,64.0,29.87,SSW,202,7.0,12.0,75,-99.99,,,-99.99,,2013-06-09 20:52:00,
2013-06-09 16:02:00,72.0,63.0,29.87,SSW,202,8.0,13.0,74,-99.99,,,-99.99,,2013-06-09 21:02:00,
2013-06-09 16:12:00,72.0,65.0,29.86,South,180,6.0,9.0,76,-99.99,,,-99.99,,2013-06-09 21:12:00,
2013-06-09 16:22:00,75.0,66.0,29.85,South,180,5.0,10.0,74,-99.99,,,-99.99,,2013-06-09 21:22:00,
2013-06-09 16:33:00,75.0,66.0,29.85,South,180,6.0,10.0,72,-99.99,,,-99.99,,2013-06-09 21:33:00,
2013-06-09 16:43:00,75.0,66.0,29.85,South,180,7.0,11.0,73,-99.99,,,-99.99,,2013-06-09 21:43:00,
2013-06-09 16:53:00,74.0,65.0,29.85,SSW,202,6.0,9.0,74,-99.99,,,-99.99,,2013-06-09 21:53:00,
2013-06-09 17:02:00,75.0,66.0,29.84,South,180,5.0,10.0,72,-99.99,,,-99.99,,2013-06-09 22:02:00,
2013-06-09 17:13:00,74.0,66.0,29.84,South,180,6.0,9.0,75,-99.99,,,-99.99,,2013-06-09 22:13:00,
2013-06-09 17:23:00,74.0,66.0,29.84,SSE,157,6.0,10.0,78,-99.99,,,-99.99,,2013-06-09 22:23:00,
2013-06-09 17:33:00,75.0,67.0,29.84,South,180,6.0,12.0,75,-99.99,,,-99.99,,2013-06-09 22:33:00,
2013-06-09 17:42:00,74.0,66.0,29.84,SSE,157,8.0,11.0,76,-99.99,,,-99.99,,2013-06-09 22:42:00,
2013-06-09 17:52:00,74.0,66.0,29.84,SE,135,7.0,12.0,75,-99.99,,,-99.99,,2013-06-09 22:52:00,
2013-06-09 18:02:00,74.0,67.0,29.84,SE,135,7.0,13.0,78,-99.99,,,-99.99,,2013-06-09 23:02:00,
2013-06-09 18:12:00,72.0,66.0,29.84,SSE,157,9.0,13.0,80,-99.99,,,-99.99,,2013-06-09 23:12:00,
2013-06-09 18:22:00,71.0,65.0,29.84,SSE,157,7.0,12.0,83,-99.99,,,-99.99,,2013-06-09 23:22:00,
2013-06-09 18:32:00,70.0,65.0,29.84,SSE,157,7.0,11.0,83,-99.99,,,-99.99,,2013-06-09 23:32:00,
2013-06-09 18:42:00,70.0,65.0,29.84,SSE,157,5.0,7.0,84,-99.99,,,-99.99,,2013-06-09 23:42:00,
2013-06-09 18:52:00,70.0,66.0,29.84,SE,135,4.0,8.0,85,-99.99,,,-99.99,,2013-06-09 23:52:00,
2013-06-09 19:02:00,70.0,66.0,29.84,SSE,157,5.0,7.0,85,-99.99,,,-99.99,,2013-06-10 00:02:00,
2013-06-09 19:12:00,70.0,66.0,29.84,SSE,157,6.0,8.0,86,-99.99,,,-99.99,,2013-06-10 00:12:00,
2013-06-09 19:22:00,66.0,62.0,29.88,West,270,16.0,28.0,87,-99.99,,,-99.99,,2013-06-10 00:22:00,
2013-06-09 19:32:00,59.0,58.0,29.86,NW,315,5.0,9.0,97,-99.99,,,-99.99,,2013-06-10 00:32:00,
2013-06-09 19:42:00,61.0,60.0,29.85,SW,225,1.0,5.0,95,-99.99,,,-99.99,,2013-06-10 00:42:00,
2013-06-09 19:52:00,62.0,60.0,29.86,ENE,67,4.0,6.0,95,-99.99,,,-99.99,,2013-06-10 00:52:00,
2013-06-09 20:02:00,62.0,60.0,29.87,South,180,3.0,6.0,95,-99.99,,,-99.99,,2013-06-10 01:02:00,
2013-06-09 20:12:00,61.0,60.0,29.86,NNE,22,0.0,-999.0,96,-99.99,,,-99.99,,2013-06-10 01:12:00,
2013-06-09 20:22:00,61.0,60.0,29.86,NW,315,2.0,4.0,97,-99.99,,,-99.99,,2013-06-10 01:22:00,
2013-06-09 20:32:00,61.0,60.0,29.86,West,270,0.0,-999.0,97,-99.99,,,-99.99,,2013-06-10 01:32:00,
2013-06-09 20:42:00,61.0,60.0,29.86,South,180,2.0,3.0,97,-99.99,,,-99.99,,2013-06-10 01:42:00,
2013-06-09 20:52:00,61.0,61.0,29.86,ESE,112,2.0,4.0,98,-99.99,,,-99.99,,2013-06-10 01:52:00,
2013-06-09 21:02:00,61.0,61.0,29.86,SSE,157,2.0,3.0,98,-99.99,,,-99.99,,2013-06-10 02:02:00,
2013-06-09 21:12:00,61.0,61.0,29.86,SE,135,5.0,8.0,98,-99.99,,,-99.99,,2013-06-10 02:12:00,
2013-06-09 21:22:00,61.0,61.0,29.86,SSE,157,4.0,8.0,99,-99.99,,,-99.99,,2013-06-10 02:22:00,
2013-06-09 21:32:00,61.0,61.0,29.87,SE,135,5.0,8.0,99,-99.99,,,-99.99,,2013-06-10 02:32:00,
2013-06-09 21:42:00,61.0,61.0,29.87,SE,135,5.0,8.0,99,-99.99,,,-99.99,,2013-06-10 02:42:00,
2013-06-09 21:52:00,62.0,62.0,29.87,SSE,157,5.0,7.0,99,-99.99,,,-99.99,,2013-06-10 02:52:00,
2013-06-09 22:02:00,62.0,62.0,29.87,SE,135,4.0,6.0,99,-99.99,,,-99.99,,2013-06-10 03:02:00,
2013-06-09 22:12:00,62.0,62.0,29.87,SSE,157,3.0,5.0,99,-99.99,,,-99.99,,2013-06-10 03:12:00,
2013-06-09 22:22:00,62.0,62.0,29.87,South,180,3.0,5.0,100,-99.99,,,-99.99,,2013-06-10 03:22:00,
2013-06-09 22:33:00,63.0,62.0,29.87,SSW,202,3.0,4.0,99,-99.99,,,-99.99,,2013-06-10 03:33:00,
2013-06-09 22:43:00,63.0,62.0,29.87,SSW,202,3.0,5.0,99,-99.99,,,-99.99,,2013-06-10 03:43:00,
2013-06-09 22:53:00,63.0,63.0,29.87,SSW,202,3.0,4.0,99,-99.99,,,-99.99,,2013-06-10 03:53:00,
2013-06-09 23:03:00,63.0,63.0,29.87,SW,225,3.0,5.0,99,-99.99,,,-99.99,,2013-06-10 04:03:00,
2013-06-09 23:12:00,63.0,63.0,29.87,SW,225,3.0,4.0,99,-99.99,,,-99.99,,2013-06-10 04:12:00,
2013-06-09 23:23:00,63.0,63.0,29.87,SW,225,3.0,4.0,99,-99.99,,,-99.99,,2013-06-10 04:23:00,
2013-06-09 23:33:00,63.0,63.0,29.87,SW,225,4.0,6.0,97,-99.99,,,-99.99,,2013-06-10 04:33:00,
2013-06-09 23:42:00,63.0,62.0,29.87,SW,225,4.0,6.0,95,-99.99,,,-99.99,,2013-06-10 04:42:00,
2013-06-09 23:52:00,63.0,62.0,29.87,SW,225,3.0,4.0,96,-99.99,,,-99.99,,2013-06-10 04:52:00,